GCFIZ EGPJ-EGPH

Flight info

Callsign GCFIZ
Flight time 0h 17m
Altitude 2500
Route EGPJ M90 J4 KELTY VRP EGPH
Aircraft C172/L-G/L

Departure

Time 2026-04-15 09:56
Airport Fife Airport (EGPJ)

Arrival

Time 2026-04-15 10:13
Airport Edinburgh Airport (EGPH)
Time Latitude Longitude Altitude Speed Heading
2026-04-15 09:48 56.18413 -3.21532 402 ft 0 kts 330°
2026-04-15 09:54 56.18433 -3.21564 402 ft 6 kts 310°
2026-04-15 09:54 56.18435 -3.21569 402 ft 0 kts 317°
2026-04-15 09:55 56.18451 -3.21594 402 ft 8 kts 292°
2026-04-15 09:55 56.18348 -3.21964 402 ft 58 kts 240°
2026-04-15 09:55 56.18121 -3.22706 508 ft 72 kts 244°
2026-04-15 09:55 56.17867 -3.23496 684 ft 75 kts 242°
2026-04-15 09:56 56.17596 -3.24309 861 ft 77 kts 242°
2026-04-15 09:56 56.17318 -3.25148 1037 ft 80 kts 242°
2026-04-15 09:56 56.16726 -3.26917 1390 ft 84 kts 242°
2026-04-15 09:57 56.16417 -3.27832 1565 ft 85 kts 242°
2026-04-15 09:57 56.16106 -3.28752 1739 ft 87 kts 242°
2026-04-15 09:57 56.15793 -3.29679 1888 ft 90 kts 242°
2026-04-15 09:57 56.15449 -3.30705 1990 ft 99 kts 242°
2026-04-15 09:58 56.15070 -3.31830 1991 ft 112 kts 239°
2026-04-15 09:58 56.14669 -3.33081 1988 ft 119 kts 240°
2026-04-15 09:58 56.14251 -3.34410 1984 ft 120 kts 241°
2026-04-15 09:58 56.13852 -3.35674 1982 ft 114 kts 241°
2026-04-15 09:59 56.13524 -3.36953 1983 ft 110 kts 249°
2026-04-15 09:59 56.13178 -3.38149 1979 ft 108 kts 225°
2026-04-15 09:59 56.12517 -3.38758 1983 ft 106 kts 195°
2026-04-15 09:59 56.11790 -3.38986 1953 ft 108 kts 192°
2026-04-15 10:00 56.11097 -3.39471 1946 ft 107 kts 204°
2026-04-15 10:00 56.10408 -3.39982 1938 ft 107 kts 201°
2026-04-15 10:00 56.09712 -3.40438 1836 ft 105 kts 201°
2026-04-15 10:00 56.09031 -3.40875 1733 ft 103 kts 201°
2026-04-15 10:01 56.08363 -3.41284 1630 ft 101 kts 198°
2026-04-15 10:01 56.07683 -3.41617 1528 ft 100 kts 195°
2026-04-15 10:01 56.07006 -3.41902 1431 ft 100 kts 194°
2026-04-15 10:01 56.06358 -3.42168 1443 ft 92 kts 193°
2026-04-15 10:02 56.05728 -3.42368 1450 ft 94 kts 190°
2026-04-15 10:02 56.05064 -3.42560 1451 ft 98 kts 189°
2026-04-15 10:02 56.04376 -3.42758 1450 ft 100 kts 190°
2026-04-15 10:02 56.03713 -3.42945 1445 ft 93 kts 190°
2026-04-15 10:03 56.03093 -3.43118 1445 ft 87 kts 189°
2026-04-15 10:03 56.02500 -3.43284 1447 ft 84 kts 189°
2026-04-15 10:03 56.01919 -3.43449 1451 ft 87 kts 189°
2026-04-15 10:03 56.01299 -3.43626 1451 ft 91 kts 189°
2026-04-15 10:04 56.00664 -3.43806 1451 ft 94 kts 189°
2026-04-15 10:04 56.00006 -3.43992 1450 ft 95 kts 190°
2026-04-15 10:04 55.99364 -3.44172 1446 ft 91 kts 190°
2026-04-15 10:04 55.98741 -3.44348 1446 ft 87 kts 190°
2026-04-15 10:05 55.98147 -3.44515 1446 ft 84 kts 190°
2026-04-15 10:05 55.97557 -3.44682 1374 ft 88 kts 190°
2026-04-15 10:05 55.96939 -3.44829 1273 ft 92 kts 180°
2026-04-15 10:05 55.96356 -3.44351 1163 ft 95 kts 135°
2026-04-15 10:06 55.96124 -3.43297 1114 ft 90 kts 90°
2026-04-15 10:06 55.96318 -3.42295 1121 ft 81 kts 63°
2026-04-15 10:06 55.96592 -3.41419 1128 ft 81 kts 60°
2026-04-15 10:06 55.96871 -3.40548 1129 ft 80 kts 60°
2026-04-15 10:07 55.97149 -3.39688 1129 ft 80 kts 60°
2026-04-15 10:07 55.97431 -3.38810 1129 ft 80 kts 60°
2026-04-15 10:07 55.97710 -3.37946 1129 ft 80 kts 60°
2026-04-15 10:07 55.97989 -3.37078 1129 ft 80 kts 60°
2026-04-15 10:08 55.98269 -3.36208 1129 ft 80 kts 60°
2026-04-15 10:08 55.98548 -3.35343 1129 ft 80 kts 60°
2026-04-15 10:08 55.98828 -3.34475 1129 ft 80 kts 60°
2026-04-15 10:08 55.99110 -3.33598 1129 ft 80 kts 60°
2026-04-15 10:09 55.99390 -3.32730 1129 ft 80 kts 60°
2026-04-15 10:09 55.99670 -3.31861 1129 ft 80 kts 60°
2026-04-15 10:09 55.99952 -3.30987 1129 ft 80 kts 60°
2026-04-15 10:09 56.00156 -3.30074 1128 ft 80 kts 89°
2026-04-15 10:10 55.99969 -3.29167 1129 ft 79 kts 133°
2026-04-15 10:10 55.99534 -3.28559 1130 ft 79 kts 146°
2026-04-15 10:10 55.99027 -3.28177 1129 ft 79 kts 179°
2026-04-15 10:10 55.98506 -3.28452 1127 ft 79 kts 203°
2026-04-15 10:11 55.97979 -3.28874 1047 ft 84 kts 217°
2026-04-15 10:11 55.97569 -3.29634 960 ft 89 kts 235°
2026-04-15 10:11 55.97204 -3.30547 841 ft 91 kts 243°
2026-04-15 10:11 55.96886 -3.31476 742 ft 86 kts 243°
2026-04-15 10:12 55.96576 -3.32442 600 ft 90 kts 244°
2026-04-15 10:12 55.96294 -3.33381 456 ft 80 kts 242°
2026-04-15 10:12 55.96028 -3.34212 336 ft 77 kts 243°
2026-04-15 10:12 55.95767 -3.34984 224 ft 68 kts 242°
2026-04-15 10:13 55.95532 -3.35675 140 ft 59 kts 241°
2026-04-15 10:13 55.95353 -3.36209 136 ft 38 kts 239°
2026-04-15 10:13 55.95258 -3.36415 136 ft 18 kts 179°
2026-04-15 10:13 55.95181 -3.36341 136 ft 2 kts 134°
2026-04-15 10:14 55.95145 -3.36276 136 ft 13 kts 115°
2026-04-15 10:14 55.95110 -3.36093 136 ft 15 kts 107°
2026-04-15 10:14 55.95070 -3.35945 136 ft 12 kts 118°
2026-04-15 10:14 55.95056 -3.35786 136 ft 13 kts 78°
2026-04-15 10:15 55.95032 -3.35621 136 ft 14 kts 123°
2026-04-15 10:15 55.94984 -3.35472 136 ft 13 kts 115°
2026-04-15 10:15 55.94937 -3.35313 136 ft 15 kts 117°
2026-04-15 10:15 55.94886 -3.35140 136 ft 16 kts 108°
2026-04-15 10:16 55.94829 -3.34960 136 ft 17 kts 118°
2026-04-15 10:16 55.94770 -3.34770 136 ft 16 kts 109°
2026-04-15 10:16 55.94791 -3.34592 136 ft 13 kts 59°
2026-04-15 10:16 55.94765 -3.34492 136 ft 7 kts 148°
2026-04-15 10:17 55.94738 -3.34483 136 ft 1 kts 276°
2026-04-15 10:17 55.94744 -3.34492 136 ft 0 kts 333°